Vorticity
8 8 -4 10 2 2 5 5 4 4 7 7 8 5 3 3 4 4 5 4 4 3 2 1 1 3 3 2 1 2 1 1 2 4 5 5 5 5 4 4 4 2 1
-2 12 0 10 4 6 3 4 4 4 4 5 6 6 4 2 2 3 3 4 4 3 4 3 4 2 3 4 3 2 2 1 1 3 4 4 4 2 4 7 7 5 3
9 11 12 8 4 9 7 5 4 3 3 5 5 5 4 4 3 2 3 3 2 3 3 2 3 2 3 4 3 3 2 2 2 3 3 7 -1 3 3 3 3 4 6
6 3 7 7 -14 18 -2 5 16 9 6 5 5 5 4 4 4 2 3 2 4 3 3 2 2 2 1 3 3 2 3 4 3 3 4 3 1 1 1 -0 2 -0 3
4 10 3 10 9 15 11 3 7 6 5 7 6 6 4 4 3 4 3 4 3 4 3 3 3 4 3 3 3 3 4 4 4 3 5 1 4 2 1 2 1 1 0
4 -1 3 6 1 5 2 -2 13 4 3 2 2 -0 9 9 7 6 4 6 6 5 5 4 5 5 6 5 4 4 2 4 3 3 2 4 5 1 3 4 3 3 5
2 9 12 -2 13 18 5 2 10 4 11 12 9 2 3 2 12 9 8 5 4 5 5 6 6 5 4 3 3 2 3 3 5 9 6 3 5 8 5 5 4 5 7
7 -5 14 1 -13 7 8 11 2 9 4 5 2 2 8 11 9 4 3 3 4 4 0 1 1 3 1 -0 6 5 4 2 4 4 3 -1 5 7 6 7 8 8 4
7 11 9 17 12 17 14 -5 14 8 1 10 15 25 11 9 5 6 1 2 3 2 2 1 2 5 1 2 5 1 22 19 11 3 1 4 -38 0 -2 3 3 5 4
12 4 3 15 21 29 6 -5 13 29 9 5 12 16 24 24 10 12 6 5 1 9 14 14 11 10 4 3 4 -8 -2 1 17 28 20 23 21 16 15 5 -6 -5 15
7 8 -1 19 -3 6 13 9 6 0 14 19 28 20 20 16 10 13 14 18 23 13 11 9 19 26 22 17 24 13 8 9 10 9 3 6 9 14 19 20 19 11 4
4 29 52 30 -3 5 4 -9 6 12 1 -2 7 0 7 7 3 1 -2 11 8 10 9 6 4 4 8 12 5 7 5 3 2 4 1 0 -2 -6 -5 26 16 9 -4
22 4 22 13 15 8 -13 -6 11 18 3 5 5 8 3 5 4 4 5 8 4 3 2 1 2 3 4 4 4 4 5 5 3 4 3 2 3 1 -1 -1 2 22 17
-7 22 -0 9 -4 1 5 3 1 12 1 4 3 3 2 3 6 6 9 5 5 7 8 5 1 1 4 4 6 6 7 6 6 7 8 6 3 2 5 7 8 -2 1
7 -5 13 6 -4 15 15 8 11 5 11 -4 5 3 6 9 10 8 5 0 -2 -2 -1 1 4 4 5 6 9 7 9 11 9 7 11 9 10 9 9 8 10 9 6
7 6 6 4 4 10 11 11 7 3 -13 -8 10 4 3 8 6 7 6 8 8 6 6 7 5 6 9 8 6 5 4 4 2 4 9 12 14 11 9 10 12 10 9
6 17 13 13 15 0 10 14 5 26 14 9 5 1 8 5 4 6 7 6 7 7 7 8 10 9 7 6 5 6 10 12 19 18 15 11 10 16 21 14 12 14 9
10 16 7 15 21 8 16 33 14 6 12 4 7 7 6 6 6 8 11 13 13 12 11 10 10 7 12 16 19 18 17 15 12 11 7 10 14 10 13 10 12 13 17
11 3 1 10 10 12 19 15 18 15 5 -1 3 8 7 6 7 8 7 9 12 12 10 11 10 11 8 6 6 8 7 6 10 10 13 14 14 11 16 10 8 9 13
8 5 6 5 7 6 6 5 5 6 8 7 8 7 6 5 4 6 5 5 8 10 12 10 9 7 8 10 9 9 7 9 12 9 10 10 11 9 9 9 9 11 10
7 5 12 9 13 6 12 8 7 8 6 5 5 5 5 5 6 5 6 5 5 8 11 9 9 8 7 7 10 9 9 12 6 8 7 10 8 10 12 10 7 7 10
6 7 14 3 12 11 6 5 6 4 4 3 3 4 4 6 7 5 6 6 4 8 10 9 9 10 12 9 5 10 8 10 6 6 8 6 7 8 6 9 7 6 7
8 6 9 8 8 7 6 5 5 5 2 2 3 3 4 4 7 8 6 7 5 9 10 9 10 14 13 11 10 12 10 11 9 8 6 3 4 6 7 9 7 7 5
8 7 9 13 8 7 6 4 3 1 2 3 5 5 5 5 6 7 7 7 8 10 8 9 12 12 10 8 11 15 18 17 18 6 9 2 1 1 1 4 7 9 8
8 6 11 10 5 6 6 5 3 3 4 5 6 6 6 6 6 7 8 7 10 8 7 10 12 10 10 11 10 9 10 10 13 16 17 10 4 3 1 2 5 6 5
6 7 9 10 9 10 6 5 5 6 7 9 8 8 7 7 6 7 8 6 11 8 7 10 10 9 10 10 10 9 9 9 9 11 11 12 14 14 10 10 10 9 7
Height
5880 5877 5874 5874 5872 5871 5870 5869 5869 5868 5868 5868 5868 5869 5869 5869 5868 5867 5867 5868 5869 5869 5869 5869 5869 5870 5871 5871 5871 5869 5868 5867 5866 5866 5866 5865 5865 5865 5864 5864 5863 5863 5862
5880 5877 5874 5872 5872 5871 5869 5868 5867 5866 5866 5866 5867 5869 5869 5869 5868 5868 5867 5867 5867 5868 5868 5869 5869 5868 5868 5868 5868 5869 5866 5865 5865 5865 5864 5863 5863 5863 5863 5863 5863 5863 5863
5880 5879 5876 5873 5871 5869 5868 5867 5866 5865 5865 5865 5865 5866 5866 5867 5867 5867 5867 5867 5867 5868 5868 5868 5867 5867 5866 5866 5866 5866 5865 5864 5864 5864 5862 5863 5862 5862 5861 5861 5861 5861 5861
5879 5877 5875 5874 5871 5868 5868 5867 5866 5865 5865 5863 5862 5863 5863 5863 5863 5864 5865 5865 5865 5866 5865 5865 5864 5863 5863 5863 5863 5863 5862 5862 5862 5862 5860 5862 5861 5859 5859 5858 5858 5858 5858
5878 5876 5874 5872 5870 5868 5867 5866 5864 5862 5862 5861 5860 5860 5860 5860 5860 5860 5861 5861 5862 5862 5862 5862 5862 5862 5862 5861 5861 5860 5860 5859 5858 5859 5857 5857 5855 5855 5855 5855 5855 5855 5855
5875 5873 5872 5870 5868 5867 5865 5864 5862 5860 5859 5858 5857 5857 5857 5858 5858 5858 5858 5859 5859 5859 5859 5859 5859 5859 5859 5859 5858 5857 5857 5855 5853 5854 5856 5853 5852 5852 5852 5852 5852 5852 5853
5873 5870 5868 5866 5864 5865 5862 5860 5859 5857 5856 5855 5853 5853 5854 5853 5854 5855 5855 5855 5855 5856 5855 5856 5855 5855 5855 5855 5854 5853 5853 5852 5850 5850 5850 5853 5850 5848 5849 5849 5849 5849 5849
5871 5868 5865 5863 5860 5858 5859 5857 5856 5854 5852 5851 5851 5850 5850 5850 5850 5850 5850 5851 5851 5852 5851 5851 5851 5851 5850 5850 5849 5848 5847 5846 5844 5843 5844 5846 5844 5842 5842 5843 5842 5843 5843
5869 5866 5863 5860 5858 5855 5854 5855 5853 5851 5848 5847 5847 5845 5844 5845 5846 5847 5847 5848 5848 5847 5846 5846 5845 5845 5844 5844 5843 5842 5840 5839 5837 5836 5837 5837 5825 5832 5833 5836 5835 5836 5836
5866 5864 5859 5857 5855 5851 5852 5852 5851 5848 5846 5843 5841 5839 5841 5842 5844 5844 5844 5844 5843 5842 5841 5839 5838 5837 5836 5835 5837 5837 5835 5834 5830 5828 5829 5827 5827 5826 5824 5825 5827 5827 5827
5862 5859 5856 5854 5852 5851 5850 5850 5848 5846 5844 5840 5839 5838 5842 5842 5843 5842 5841 5839 5838 5837 5836 5834 5832 5830 5830 5830 5831 5832 5831 5828 5826 5825 5824 5822 5820 5817 5816 5815 5816 5817 5818
5861 5857 5852 5849 5851 5850 5848 5848 5846 5844 5843 5840 5840 5840 5841 5841 5840 5839 5838 5836 5834 5834 5832 5830 5829 5828 5828 5828 5826 5826 5825 5823 5821 5821 5819 5817 5815 5813 5811 5810 5808 5809 5811
5860 5858 5854 5852 5851 5848 5847 5844 5844 5843 5841 5841 5841 5840 5839 5838 5837 5836 5834 5833 5831 5831 5829 5827 5825 5823 5822 5822 5821 5819 5818 5816 5815 5816 5814 5809 5808 5807 5806 5805 5804 5803 5804
5859 5857 5854 5853 5849 5846 5844 5842 5842 5841 5840 5839 5839 5838 5836 5835 5834 5833 5832 5831 5829 5827 5826 5822 5820 5818 5816 5815 5813 5810 5809 5807 5805 5805 5806 5802 5800 5799 5799 5799 5798 5797 5797
5856 5855 5854 5851 5848 5844 5841 5839 5839 5838 5837 5837 5837 5837 5835 5833 5830 5829 5828 5826 5824 5822 5819 5817 5814 5812 5810 5807 5805 5802 5800 5799 5796 5794 5795 5793 5791 5790 5790 5790 5790 5789 5788
5854 5852 5850 5848 5844 5842 5839 5838 5836 5836 5835 5835 5835 5833 5831 5829 5827 5825 5824 5822 5819 5816 5815 5811 5808 5805 5803 5801 5798 5796 5793 5790 5787 5783 5783 5784 5782 5780 5779 5779 5779 5779 5779
5850 5848 5845 5843 5841 5838 5837 5836 5835 5835 5834 5834 5832 5830 5828 5826 5824 5822 5819 5817 5814 5811 5808 5806 5802 5800 5797 5794 5792 5789 5786 5783 5779 5778 5775 5774 5774 5772 5771 5770 5769 5770 5769
5848 5846 5843 5840 5837 5836 5833 5832 5832 5832 5832 5830 5829 5827 5826 5824 5822 5819 5815 5813 5809 5806 5803 5800 5797 5794 5791 5787 5784 5781 5778 5775 5772 5770 5767 5766 5765 5764 5765 5761 5761 5760 5760
5846 5843 5841 5838 5836 5834 5831 5830 5829 5830 5830 5829 5827 5826 5824 5821 5818 5815 5811 5808 5805 5801 5796 5793 5790 5787 5783 5779 5777 5774 5771 5769 5768 5763 5761 5759 5759 5755 5758 5756 5754 5753 5753
5843 5842 5839 5837 5837 5835 5833 5830 5829 5829 5828 5826 5825 5823 5821 5817 5814 5811 5806 5803 5800 5795 5791 5787 5783 5779 5776 5772 5770 5767 5765 5761 5761 5756 5755 5755 5751 5750 5749 5749 5747 5747 5745
5842 5840 5837 5836 5833 5832 5831 5829 5827 5826 5825 5824 5822 5819 5816 5813 5809 5805 5801 5796 5793 5788 5785 5781 5777 5773 5770 5767 5763 5760 5756 5756 5753 5751 5748 5748 5744 5743 5743 5741 5741 5739 5739
5839 5839 5836 5834 5831 5829 5827 5827 5825 5825 5823 5821 5819 5816 5812 5808 5804 5799 5794 5790 5787 5783 5778 5775 5771 5767 5763 5761 5758 5754 5748 5747 5744 5743 5741 5738 5738 5736 5736 5735 5735 5734 5733
5837 5835 5832 5831 5828 5826 5825 5824 5822 5821 5819 5817 5814 5811 5807 5803 5798 5794 5789 5785 5780 5776 5772 5769 5764 5760 5756 5753 5750 5747 5743 5738 5735 5733 5733 5731 5729 5728 5727 5726 5726 5725 5725
5833 5831 5829 5827 5825 5823 5821 5821 5819 5818 5815 5812 5809 5806 5801 5796 5792 5787 5783 5779 5774 5769 5765 5761 5757 5753 5748 5743 5739 5736 5733 5731 5728 5728 5724 5722 5721 5719 5717 5716 5715 5715 5715
5829 5826 5824 5823 5821 5819 5817 5816 5814 5812 5809 5805 5802 5799 5795 5790 5785 5782 5778 5773 5767 5763 5758 5754 5749 5744 5740 5735 5731 5726 5723 5720 5718 5716 5716 5713 5711 5708 5707 5706 5705 5703 5703
5824 5822 5820 5818 5816 5815 5813 5812 5809 5806 5803 5800 5797 5794 5791 5787 5782 5777 5772 5766 5760 5755 5751 5746 5741 5736 5731 5726 5722 5718 5714 5712 5708 5705 5703 5701 5700 5698 5695 5693 5693 5692 5691